Time,TemperatureF,DewpointF,PressureIn,WindDirection,WindDirectionDegrees,WindSpeedMPH,WindSpeedGustMPH,Humidity,HourlyPrecipIn,Conditions,Clouds,dailyrainin,SoftwareType,DateUTC
2013-02-15 00:00:00,42.7,42.4,30.09,North,32767,0.0,0.0,99,0.00,,,0.00,Wunderground v.1.15,2013-02-15 06:00:00,
2013-02-15 00:05:00,42.6,42.3,30.09,North,32767,0.0,0.0,99,0.00,,,0.00,Wunderground v.1.15,2013-02-15 06:05:00,
2013-02-15 00:10:00,42.6,42.3,30.09,North,32767,0.0,0.0,99,0.00,,,0.00,Wunderground v.1.15,2013-02-15 06:10:00,
2013-02-15 00:15:00,42.5,42.2,30.09,North,32767,0.0,0.0,99,0.00,,,0.00,Wunderground v.1.15,2013-02-15 06:15:00,
2013-02-15 00:20:00,42.5,42.2,30.09,North,32767,0.0,0.0,99,0.00,,,0.00,Wunderground v.1.15,2013-02-15 06:20:00,
2013-02-15 00:30:00,42.4,42.1,30.09,North,32767,0.0,0.0,99,0.00,,,0.00,Wunderground v.1.15,2013-02-15 06:30:00,
2013-02-15 00:35:00,42.3,42.0,30.09,North,32767,0.0,0.0,99,0.00,,,0.00,Wunderground v.1.15,2013-02-15 06:35:00,
2013-02-15 00:40:00,42.3,42.0,30.09,North,32767,0.0,0.0,99,0.00,,,0.00,Wunderground v.1.15,2013-02-15 06:40:00,
2013-02-15 00:45:00,42.3,42.0,30.09,North,32767,0.0,0.0,99,0.00,,,0.00,Wunderground v.1.15,2013-02-15 06:45:00,
2013-02-15 00:50:00,42.3,42.0,30.09,North,32767,0.0,0.0,99,0.00,,,0.00,Wunderground v.1.15,2013-02-15 06:50:00,
2013-02-15 00:55:00,42.2,41.9,30.09,North,32767,0.0,0.0,99,0.00,,,0.00,Wunderground v.1.15,2013-02-15 06:55:00,
2013-02-15 01:00:00,42.2,41.9,30.09,North,32767,0.0,0.0,99,0.00,,,0.00,Wunderground v.1.15,2013-02-15 07:00:00,
2013-02-15 01:05:00,42.0,41.7,30.09,North,32767,0.0,0.0,99,0.00,,,0.00,Wunderground v.1.15,2013-02-15 07:05:00,
2013-02-15 01:10:00,42.0,41.7,30.09,North,32767,0.0,0.0,99,0.00,,,0.00,Wunderground v.1.15,2013-02-15 07:10:00,
2013-02-15 01:15:00,42.0,41.7,30.09,North,32767,0.0,0.0,99,0.00,,,0.00,Wunderground v.1.15,2013-02-15 07:15:00,
2013-02-15 01:20:00,42.0,41.7,30.09,North,32767,0.0,0.0,99,0.00,,,0.00,Wunderground v.1.15,2013-02-15 07:20:00,
2013-02-15 01:25:00,41.9,41.6,30.09,North,32767,0.0,0.0,99,0.00,,,0.00,Wunderground v.1.15,2013-02-15 07:25:00,
2013-02-15 01:30:00,41.8,41.5,30.09,North,32767,0.0,0.0,99,0.00,,,0.00,Wunderground v.1.15,2013-02-15 07:30:00,
2013-02-15 01:35:00,41.7,41.4,30.09,North,32767,0.0,0.0,99,0.00,,,0.00,Wunderground v.1.15,2013-02-15 07:35:00,
2013-02-15 01:40:00,41.6,41.3,30.09,North,32767,0.0,0.0,99,0.00,,,0.00,Wunderground v.1.15,2013-02-15 07:40:00,
2013-02-15 01:45:00,41.6,41.3,30.09,North,32767,0.0,0.0,99,0.00,,,0.00,Wunderground v.1.15,2013-02-15 07:45:00,
2013-02-15 01:50:00,41.5,41.2,30.09,North,32767,0.0,0.0,99,0.00,,,0.00,Wunderground v.1.15,2013-02-15 07:50:00,
2013-02-15 01:55:00,41.4,41.1,30.10,North,32767,0.0,0.0,99,0.00,,,0.00,Wunderground v.1.15,2013-02-15 07:55:00,
2013-02-15 02:00:00,41.4,41.1,30.10,North,32767,0.0,0.0,99,0.00,,,0.00,Wunderground v.1.15,2013-02-15 08:00:00,
2013-02-15 02:05:00,41.4,41.1,30.09,North,32767,0.0,0.0,99,0.00,,,0.00,Wunderground v.1.15,2013-02-15 08:05:00,
2013-02-15 02:15:00,41.5,41.2,30.09,North,32767,0.0,0.0,99,0.00,,,0.00,Wunderground v.1.15,2013-02-15 08:15:00,
2013-02-15 02:20:00,41.8,41.5,30.09,North,32767,0.0,0.0,99,0.00,,,0.00,Wunderground v.1.15,2013-02-15 08:20:00,
2013-02-15 02:25:00,41.9,41.6,30.09,North,32767,0.0,0.0,99,0.00,,,0.00,Wunderground v.1.15,2013-02-15 08:25:00,
2013-02-15 02:30:00,41.8,41.5,30.09,North,32767,0.0,0.0,99,0.00,,,0.00,Wunderground v.1.15,2013-02-15 08:30:00,
2013-02-15 02:35:00,41.8,41.5,30.09,North,32767,0.0,0.0,99,0.00,,,0.00,Wunderground v.1.15,2013-02-15 08:35:00,
2013-02-15 02:40:00,41.7,41.4,30.09,North,32767,0.0,0.0,99,0.00,,,0.00,Wunderground v.1.15,2013-02-15 08:40:00,
2013-02-15 02:45:00,41.6,41.3,30.09,North,32767,0.0,0.0,99,0.00,,,0.00,Wunderground v.1.15,2013-02-15 08:45:00,
2013-02-15 02:50:00,41.5,41.2,30.09,North,32767,0.0,0.0,99,0.00,,,0.00,Wunderground v.1.15,2013-02-15 08:50:00,
2013-02-15 02:55:00,41.4,41.1,30.08,North,32767,0.0,0.0,99,0.00,,,0.00,Wunderground v.1.15,2013-02-15 08:55:00,
2013-02-15 03:00:00,41.3,41.0,30.09,North,32767,0.0,0.0,99,0.00,,,0.00,Wunderground v.1.15,2013-02-15 09:00:00,
2013-02-15 03:05:00,41.3,41.0,30.09,North,32767,0.0,0.0,99,0.00,,,0.00,Wunderground v.1.15,2013-02-15 09:05:00,
2013-02-15 03:10:00,41.2,40.9,30.09,North,32767,0.0,0.0,99,0.00,,,0.00,Wunderground v.1.15,2013-02-15 09:10:00,
2013-02-15 03:15:00,41.2,40.9,30.09,North,32767,0.0,0.0,99,0.00,,,0.00,Wunderground v.1.15,2013-02-15 09:15:00,
2013-02-15 03:20:00,41.3,41.0,30.09,N/A,-737280,0.0,-999.0,99,0.00,,,0.00,Wunderground v.1.15,2013-02-15 09:20:00,
2013-02-15 03:25:00,41.4,41.1,30.09,N/A,-737280,0.0,-999.0,99,0.00,,,0.00,Wunderground v.1.15,2013-02-15 09:25:00,
2013-02-15 03:30:00,41.4,41.1,30.09,N/A,-737280,0.0,-999.0,99,0.00,,,0.00,Wunderground v.1.15,2013-02-15 09:30:00,
2013-02-15 03:35:00,41.4,41.1,30.09,N/A,-737280,0.0,-999.0,99,0.00,,,0.00,Wunderground v.1.15,2013-02-15 09:35:00,
2013-02-15 03:40:00,41.3,41.0,30.09,N/A,-737280,0.0,-999.0,99,0.00,,,0.00,Wunderground v.1.15,2013-02-15 09:40:00,
2013-02-15 03:45:00,41.1,40.8,30.09,N/A,-737280,0.0,-999.0,99,0.00,,,0.00,Wunderground v.1.15,2013-02-15 09:45:00,
2013-02-15 03:50:00,41.0,40.7,30.09,N/A,-737280,0.0,-999.0,99,0.00,,,0.00,Wunderground v.1.15,2013-02-15 09:50:00,
2013-02-15 03:55:00,40.9,40.6,30.09,N/A,-737280,0.0,-999.0,99,0.00,,,0.00,Wunderground v.1.15,2013-02-15 09:55:00,
2013-02-15 04:00:00,40.9,40.6,30.09,N/A,-737280,0.0,-999.0,99,0.00,,,0.00,Wunderground v.1.15,2013-02-15 10:00:00,
2013-02-15 04:05:00,40.8,40.5,30.10,N/A,-737280,0.0,-999.0,99,0.00,,,0.00,Wunderground v.1.15,2013-02-15 10:05:00,
2013-02-15 04:10:00,40.8,40.5,30.10,N/A,-737280,0.0,-999.0,99,0.00,,,0.00,Wunderground v.1.15,2013-02-15 10:10:00,
2013-02-15 04:15:00,40.8,40.5,30.10,N/A,-737280,0.0,-999.0,99,0.00,,,0.00,Wunderground v.1.15,2013-02-15 10:15:00,
2013-02-15 04:20:00,40.8,40.5,30.10,N/A,-737280,0.0,-999.0,99,0.00,,,0.00,Wunderground v.1.15,2013-02-15 10:20:00,
2013-02-15 04:25:00,40.8,40.5,30.10,N/A,-737280,0.0,-999.0,99,0.00,,,0.00,Wunderground v.1.15,2013-02-15 10:25:00,
2013-02-15 04:30:00,40.9,40.6,30.09,N/A,-737280,0.0,-999.0,99,0.00,,,0.00,Wunderground v.1.15,2013-02-15 10:30:00,
2013-02-15 04:35:00,40.8,40.5,30.09,N/A,-737280,0.0,-999.0,99,0.00,,,0.00,Wunderground v.1.15,2013-02-15 10:35:00,
2013-02-15 04:40:00,40.8,40.5,30.10,N/A,-737280,0.0,-999.0,99,0.00,,,0.00,Wunderground v.1.15,2013-02-15 10:40:00,
2013-02-15 04:45:00,40.7,40.4,30.10,N/A,-737280,0.0,-999.0,99,0.00,,,0.00,Wunderground v.1.15,2013-02-15 10:45:00,
2013-02-15 04:50:00,40.5,40.2,30.10,N/A,-737280,0.0,-999.0,99,0.00,,,0.00,Wunderground v.1.15,2013-02-15 10:50:00,
2013-02-15 04:55:00,40.5,40.2,30.10,N/A,-737280,0.0,-999.0,99,0.00,,,0.00,Wunderground v.1.15,2013-02-15 10:55:00,
2013-02-15 05:00:00,40.4,40.1,30.10,N/A,-737280,0.0,-999.0,99,0.00,,,0.00,Wunderground v.1.15,2013-02-15 11:00:00,
2013-02-15 05:05:00,40.4,40.1,30.10,N/A,-737280,0.0,-999.0,99,0.00,,,0.00,Wunderground v.1.15,2013-02-15 11:05:00,
2013-02-15 05:10:00,40.4,40.1,30.10,N/A,-737280,0.0,-999.0,99,0.00,,,0.00,Wunderground v.1.15,2013-02-15 11:10:00,
2013-02-15 05:15:00,40.5,40.2,30.11,N/A,-737280,0.0,-999.0,99,0.00,,,0.00,Wunderground v.1.15,2013-02-15 11:15:00,
2013-02-15 05:20:00,40.6,40.3,30.11,N/A,-737280,0.0,-999.0,99,0.00,,,0.00,Wunderground v.1.15,2013-02-15 11:20:00,
2013-02-15 05:30:00,40.6,40.3,30.11,N/A,-737280,0.0,-999.0,99,0.00,,,0.00,Wunderground v.1.15,2013-02-15 11:30:00,
2013-02-15 05:35:00,40.6,40.3,30.11,N/A,-737280,0.0,-999.0,99,0.00,,,0.00,Wunderground v.1.15,2013-02-15 11:35:00,
2013-02-15 05:40:00,40.6,40.3,30.12,N/A,-737280,0.0,-999.0,99,0.00,,,0.00,Wunderground v.1.15,2013-02-15 11:40:00,
2013-02-15 05:45:00,40.6,40.3,30.12,N/A,-737280,0.0,-999.0,99,0.00,,,0.00,Wunderground v.1.15,2013-02-15 11:45:00,
2013-02-15 05:50:00,40.6,40.3,30.12,N/A,-737280,0.0,-999.0,99,0.00,,,0.00,Wunderground v.1.15,2013-02-15 11:50:00,
2013-02-15 05:55:00,40.6,40.3,30.12,North,32767,0.0,0.0,99,0.00,,,0.00,Wunderground v.1.15,2013-02-15 11:55:00,
2013-02-15 05:57:00,40.6,40.3,30.12,North,32767,0.0,0.0,99,0.00,,,0.00,Wunderground v.1.15,2013-02-15 11:57:00,
2013-02-15 06:00:00,40.6,40.3,30.12,North,32767,0.0,0.0,99,0.00,,,0.00,Wunderground v.1.15,2013-02-15 12:00:00,
2013-02-15 06:05:00,40.7,40.4,30.12,North,32767,0.0,0.0,99,0.00,,,0.00,Wunderground v.1.15,2013-02-15 12:05:00,
2013-02-15 06:10:00,40.8,40.5,30.13,North,32767,0.0,0.0,99,0.00,,,0.00,Wunderground v.1.15,2013-02-15 12:10:00,
2013-02-15 06:15:00,40.9,40.6,30.13,North,32767,0.0,0.0,99,0.00,,,0.00,Wunderground v.1.15,2013-02-15 12:15:00,
2013-02-15 06:20:00,40.9,40.6,30.13,North,32767,0.0,0.0,99,0.00,,,0.00,Wunderground v.1.15,2013-02-15 12:20:00,
2013-02-15 06:25:00,40.8,40.5,30.13,North,32767,0.0,0.0,99,0.00,,,0.00,Wunderground v.1.15,2013-02-15 12:25:00,
2013-02-15 06:30:00,40.8,40.5,30.13,North,32767,0.0,0.0,99,0.00,,,0.00,Wunderground v.1.15,2013-02-15 12:30:00,
2013-02-15 06:35:00,40.8,40.5,30.13,North,32767,0.0,0.0,99,0.00,,,0.00,Wunderground v.1.15,2013-02-15 12:35:00,
2013-02-15 06:40:00,40.9,40.6,30.13,North,32767,0.0,0.0,99,0.00,,,0.01,Wunderground v.1.15,2013-02-15 12:40:00,
2013-02-15 06:45:00,41.0,40.7,30.13,North,32767,0.0,0.0,99,0.00,,,0.01,Wunderground v.1.15,2013-02-15 12:45:00,
2013-02-15 06:50:00,41.1,40.8,30.13,North,32767,0.0,0.0,99,0.00,,,0.01,Wunderground v.1.15,2013-02-15 12:50:00,
2013-02-15 06:55:00,41.1,41.1,30.13,North,32767,0.0,0.0,100,0.00,,,0.01,Wunderground v.1.15,2013-02-15 12:55:00,
2013-02-15 07:00:00,41.3,41.0,30.13,North,32767,0.0,0.0,99,0.00,,,0.01,Wunderground v.1.15,2013-02-15 13:00:00,
2013-02-15 07:05:00,41.4,41.1,30.13,North,32767,0.0,0.0,99,0.00,,,0.01,Wunderground v.1.15,2013-02-15 13:05:00,
2013-02-15 07:10:00,41.6,41.3,30.14,North,32767,0.0,0.0,99,0.00,,,0.01,Wunderground v.1.15,2013-02-15 13:10:00,
2013-02-15 07:15:00,41.8,41.5,30.14,North,32767,0.0,0.0,99,0.00,,,0.01,Wunderground v.1.15,2013-02-15 13:15:00,
2013-02-15 07:20:00,42.2,41.9,30.14,North,32767,0.0,0.0,99,0.00,,,0.01,Wunderground v.1.15,2013-02-15 13:20:00,
2013-02-15 07:25:00,42.5,42.5,30.14,North,32767,0.0,0.0,100,0.00,,,0.01,Wunderground v.1.15,2013-02-15 13:25:00,
2013-02-15 07:30:00,42.8,42.5,30.14,North,32767,0.0,0.0,99,0.00,,,0.01,Wunderground v.1.15,2013-02-15 13:30:00,
2013-02-15 07:35:00,43.2,43.2,30.14,North,32767,0.0,0.0,100,0.00,,,0.01,Wunderground v.1.15,2013-02-15 13:35:00,
2013-02-15 07:40:00,43.6,43.6,30.14,North,32767,0.0,0.0,100,0.00,,,0.01,Wunderground v.1.15,2013-02-15 13:40:00,
2013-02-15 07:45:00,44.2,44.2,30.15,North,32767,0.0,0.0,100,0.00,,,0.01,Wunderground v.1.15,2013-02-15 13:45:00,
2013-02-15 07:50:00,44.9,44.9,30.15,North,32767,0.0,0.0,100,0.00,,,0.01,Wunderground v.1.15,2013-02-15 13:50:00,
2013-02-15 07:55:00,45.7,45.7,30.15,North,32767,0.0,0.0,100,0.00,,,0.01,Wunderground v.1.15,2013-02-15 13:55:00,
2013-02-15 08:00:00,46.8,46.8,30.15,North,32767,0.0,0.0,100,0.00,,,0.01,Wunderground v.1.15,2013-02-15 14:00:00,
2013-02-15 08:05:00,47.8,47.8,30.15,North,32767,0.0,0.0,100,0.00,,,0.01,Wunderground v.1.15,2013-02-15 14:05:00,
2013-02-15 08:10:00,48.5,48.5,30.15,North,32767,0.0,0.0,100,0.00,,,0.01,Wunderground v.1.15,2013-02-15 14:10:00,
2013-02-15 08:15:00,49.3,49.3,30.16,North,32767,0.0,0.0,100,0.00,,,0.01,Wunderground v.1.15,2013-02-15 14:15:00,
2013-02-15 08:20:00,49.4,49.4,30.16,North,32767,0.0,0.0,100,0.00,,,0.01,Wunderground v.1.15,2013-02-15 14:20:00,
2013-02-15 08:25:00,50.1,50.1,30.16,North,32767,0.0,0.0,100,0.00,,,0.01,Wunderground v.1.15,2013-02-15 14:25:00,
2013-02-15 08:30:00,51.2,51.2,30.16,North,32767,0.0,0.0,100,0.00,,,0.01,Wunderground v.1.15,2013-02-15 14:30:00,
2013-02-15 08:35:00,52.1,52.1,30.16,North,32767,0.0,0.0,100,0.00,,,0.01,Wunderground v.1.15,2013-02-15 14:35:00,
2013-02-15 08:40:00,52.6,52.6,30.16,North,32767,0.0,0.0,100,0.00,,,0.01,Wunderground v.1.15,2013-02-15 14:40:00,
2013-02-15 08:45:00,53.2,52.4,30.16,North,32767,0.0,0.0,97,0.00,,,0.01,Wunderground v.1.15,2013-02-15 14:45:00,
2013-02-15 08:50:00,54.0,51.7,30.16,North,32767,0.0,0.0,92,0.00,,,0.01,Wunderground v.1.15,2013-02-15 14:50:00,
2013-02-15 08:55:00,54.8,52.8,30.16,North,32767,0.0,0.0,93,0.00,,,0.01,Wunderground v.1.15,2013-02-15 14:55:00,
2013-02-15 09:00:00,55.6,53.0,30.16,North,32767,0.0,0.0,91,0.00,,,0.01,Wunderground v.1.15,2013-02-15 15:00:00,
2013-02-15 09:05:00,56.4,52.9,30.16,North,32767,0.0,0.0,88,0.00,,,0.01,Wunderground v.1.15,2013-02-15 15:05:00,
2013-02-15 09:15:00,57.4,52.3,30.16,North,32767,0.0,0.0,83,0.00,,,0.01,Wunderground v.1.15,2013-02-15 15:15:00,
2013-02-15 09:20:00,57.7,52.2,30.16,North,32767,0.0,0.0,82,0.00,,,0.01,Wunderground v.1.15,2013-02-15 15:20:00,
2013-02-15 09:25:00,58.6,53.5,30.17,North,32767,0.0,0.0,83,0.00,,,0.01,Wunderground v.1.15,2013-02-15 15:25:00,
2013-02-15 09:30:00,59.1,51.9,30.16,North,32767,0.0,0.0,77,0.00,,,0.01,Wunderground v.1.15,2013-02-15 15:30:00,
2013-02-15 09:35:00,59.6,53.1,30.16,North,32767,0.0,0.0,79,0.00,,,0.01,Wunderground v.1.15,2013-02-15 15:35:00,
2013-02-15 09:45:00,60.2,53.0,30.16,North,32767,0.0,0.0,77,0.00,,,0.01,Wunderground v.1.15,2013-02-15 15:45:00,
2013-02-15 09:50:00,59.8,51.9,30.16,North,32767,0.0,0.0,75,0.00,,,0.01,Wunderground v.1.15,2013-02-15 15:50:00,
2013-02-15 09:55:00,60.3,51.2,30.16,North,32767,0.0,0.0,72,0.00,,,0.01,Wunderground v.1.15,2013-02-15 15:55:00,
2013-02-15 10:00:00,60.5,51.0,30.16,North,32767,0.0,0.0,71,0.00,,,0.01,Wunderground v.1.15,2013-02-15 16:00:00,
2013-02-15 10:05:00,60.2,51.5,30.16,North,32767,0.0,0.0,73,0.00,,,0.01,Wunderground v.1.15,2013-02-15 16:05:00,
2013-02-15 10:10:00,60.6,51.9,30.16,North,32767,0.0,0.0,73,0.00,,,0.01,Wunderground v.1.15,2013-02-15 16:10:00,
2013-02-15 10:15:00,61.3,51.0,30.16,North,32767,0.0,0.0,69,0.00,,,0.01,Wunderground v.1.15,2013-02-15 16:15:00,
2013-02-15 10:20:00,61.7,50.6,30.16,North,32767,0.0,0.0,67,0.00,,,0.01,Wunderground v.1.15,2013-02-15 16:20:00,
2013-02-15 10:25:00,62.0,51.3,30.16,North,32767,0.0,0.0,68,0.00,,,0.01,Wunderground v.1.15,2013-02-15 16:25:00,
2013-02-15 10:30:00,62.3,50.4,30.16,North,32767,0.0,0.0,65,0.00,,,0.01,Wunderground v.1.15,2013-02-15 16:30:00,
2013-02-15 10:35:00,62.4,52.1,30.16,North,32767,0.0,0.0,69,0.00,,,0.01,Wunderground v.1.15,2013-02-15 16:35:00,
2013-02-15 10:40:00,62.5,51.4,30.15,North,32767,0.0,0.0,67,0.00,,,0.01,Wunderground v.1.15,2013-02-15 16:40:00,
2013-02-15 10:45:00,62.5,48.4,30.15,North,32767,0.0,0.0,60,0.00,,,0.01,Wunderground v.1.15,2013-02-15 16:45:00,
2013-02-15 10:50:00,62.2,49.9,30.15,North,32767,0.0,0.0,64,0.00,,,0.01,Wunderground v.1.15,2013-02-15 16:50:00,
2013-02-15 10:55:00,62.2,47.7,30.14,North,32767,0.0,0.0,59,0.00,,,0.01,Wunderground v.1.15,2013-02-15 16:55:00,
2013-02-15 11:00:00,61.6,46.2,30.14,North,32767,0.0,0.0,57,0.00,,,0.01,Wunderground v.1.15,2013-02-15 17:00:00,
2013-02-15 11:05:00,61.7,48.1,30.14,North,32767,0.0,0.0,61,0.00,,,0.01,Wunderground v.1.15,2013-02-15 17:05:00,
2013-02-15 11:10:00,62.0,48.4,30.14,North,32767,0.0,0.0,61,0.00,,,0.01,Wunderground v.1.15,2013-02-15 17:10:00,
2013-02-15 11:15:00,62.2,47.2,30.14,North,32767,0.0,0.0,58,0.00,,,0.01,Wunderground v.1.15,2013-02-15 17:15:00,
2013-02-15 11:20:00,62.5,48.4,30.13,North,32767,0.0,0.0,60,0.00,,,0.01,Wunderground v.1.15,2013-02-15 17:20:00,
2013-02-15 11:25:00,62.8,47.8,30.13,North,32767,0.0,0.0,58,0.00,,,0.01,Wunderground v.1.15,2013-02-15 17:25:00,
2013-02-15 11:30:00,63.0,48.0,30.13,North,32767,0.0,0.0,58,0.00,,,0.01,Wunderground v.1.15,2013-02-15 17:30:00,
2013-02-15 11:40:00,63.6,46.6,30.12,North,32767,0.0,0.0,54,0.00,,,0.01,Wunderground v.1.15,2013-02-15 17:40:00,
2013-02-15 11:45:00,63.4,49.3,30.12,North,32767,0.0,0.0,60,0.00,,,0.01,Wunderground v.1.15,2013-02-15 17:45:00,
2013-02-15 11:50:00,63.2,49.1,30.12,North,32767,0.0,0.0,60,0.00,,,0.01,Wunderground v.1.15,2013-02-15 17:50:00,
2013-02-15 11:55:00,62.9,49.2,30.11,North,32767,0.0,0.0,61,0.00,,,0.01,Wunderground v.1.15,2013-02-15 17:55:00,
2013-02-15 12:00:00,62.7,51.2,30.11,North,32767,0.0,0.0,66,0.00,,,0.01,Wunderground v.1.15,2013-02-15 18:00:00,
2013-02-15 12:05:00,63.0,51.0,30.11,North,32767,0.0,0.0,65,0.00,,,0.01,Wunderground v.1.15,2013-02-15 18:05:00,
2013-02-15 12:10:00,63.2,50.4,30.11,North,32767,0.0,0.0,63,0.00,,,0.01,Wunderground v.1.15,2013-02-15 18:10:00,
2013-02-15 12:15:00,63.5,51.5,30.10,North,32767,0.0,0.0,65,0.00,,,0.01,Wunderground v.1.15,2013-02-15 18:15:00,
2013-02-15 12:20:00,63.4,50.6,30.11,North,32767,0.0,0.0,63,0.00,,,0.01,Wunderground v.1.15,2013-02-15 18:20:00,
2013-02-15 12:25:00,63.4,50.6,30.11,North,32767,0.0,0.0,63,0.00,,,0.01,Wunderground v.1.15,2013-02-15 18:25:00,
2013-02-15 12:30:00,63.1,50.3,30.10,North,32767,0.0,0.0,63,0.00,,,0.01,Wunderground v.1.15,2013-02-15 18:30:00,
2013-02-15 12:35:00,63.0,49.3,30.10,North,32767,0.0,0.0,61,0.00,,,0.01,Wunderground v.1.15,2013-02-15 18:35:00,
2013-02-15 12:40:00,62.9,49.7,30.10,North,32767,0.0,0.0,62,0.00,,,0.01,Wunderground v.1.15,2013-02-15 18:40:00,
2013-02-15 12:50:00,63.6,50.3,30.10,North,32767,0.0,0.0,62,0.00,,,0.01,Wunderground v.1.15,2013-02-15 18:50:00,
2013-02-15 12:55:00,63.1,49.0,30.09,North,32767,0.0,0.0,60,0.00,,,0.01,Wunderground v.1.15,2013-02-15 18:55:00,
2013-02-15 13:00:00,62.8,49.1,30.09,North,32767,0.0,0.0,61,0.00,,,0.01,Wunderground v.1.15,2013-02-15 19:00:00,
2013-02-15 13:05:00,63.0,49.3,30.09,North,32767,0.0,0.0,61,0.00,,,0.01,Wunderground v.1.15,2013-02-15 19:05:00,
2013-02-15 13:10:00,63.1,49.0,30.08,North,32767,0.0,0.0,60,0.00,,,0.01,Wunderground v.1.15,2013-02-15 19:10:00,
2013-02-15 13:15:00,63.6,50.3,30.08,North,32767,0.0,0.0,62,0.00,,,0.01,Wunderground v.1.15,2013-02-15 19:15:00,
2013-02-15 13:20:00,63.4,49.7,30.08,North,32767,0.0,0.0,61,0.00,,,0.01,Wunderground v.1.15,2013-02-15 19:20:00,
2013-02-15 13:25:00,63.3,49.2,30.08,North,32767,0.0,0.0,60,0.00,,,0.01,Wunderground v.1.15,2013-02-15 19:25:00,
2013-02-15 13:35:00,63.4,50.1,30.08,North,32767,0.0,0.0,62,0.00,,,0.01,Wunderground v.1.15,2013-02-15 19:35:00,
2013-02-15 13:40:00,63.3,50.1,30.08,North,32767,0.0,0.0,62,0.00,,,0.01,Wunderground v.1.15,2013-02-15 19:40:00,
2013-02-15 13:45:00,63.4,49.7,30.07,North,32767,0.0,0.0,61,0.00,,,0.01,Wunderground v.1.15,2013-02-15 19:45:00,
2013-02-15 13:50:00,63.3,48.7,30.07,North,32767,0.0,0.0,59,0.00,,,0.01,Wunderground v.1.15,2013-02-15 19:50:00,
2013-02-15 13:55:00,62.9,48.8,30.07,North,32767,0.0,0.0,60,0.00,,,0.01,Wunderground v.1.15,2013-02-15 19:55:00,
2013-02-15 14:00:00,62.9,48.8,30.07,North,32767,0.0,0.0,60,0.00,,,0.01,Wunderground v.1.15,2013-02-15 20:00:00,
2013-02-15 14:05:00,62.8,48.7,30.07,North,32767,0.0,0.0,60,0.00,,,0.01,Wunderground v.1.15,2013-02-15 20:05:00,
2013-02-15 14:15:00,62.9,51.0,30.07,North,32767,0.0,0.0,65,0.00,,,0.01,Wunderground v.1.15,2013-02-15 20:15:00,
2013-02-15 14:20:00,63.1,50.7,30.06,North,32767,0.0,0.0,64,0.00,,,0.01,Wunderground v.1.15,2013-02-15 20:20:00,
2013-02-15 14:25:00,63.1,50.3,30.06,North,32767,0.0,0.0,63,0.00,,,0.01,Wunderground v.1.15,2013-02-15 20:25:00,
2013-02-15 14:30:00,63.0,51.0,30.06,North,32767,0.0,0.0,65,0.00,,,0.01,Wunderground v.1.15,2013-02-15 20:30:00,
2013-02-15 14:35:00,63.0,50.6,30.06,North,32767,0.0,0.0,64,0.00,,,0.01,Wunderground v.1.15,2013-02-15 20:35:00,
2013-02-15 14:45:00,62.7,49.9,30.06,North,32767,0.0,0.0,63,0.00,,,0.01,Wunderground v.1.15,2013-02-15 20:45:00,
2013-02-15 14:50:00,62.8,50.0,30.06,North,32767,0.0,0.0,63,0.00,,,0.01,Wunderground v.1.15,2013-02-15 20:50:00,
2013-02-15 14:55:00,62.7,49.9,30.06,North,32767,0.0,0.0,63,0.00,,,0.01,Wunderground v.1.15,2013-02-15 20:55:00,
2013-02-15 15:00:00,62.6,49.8,30.06,North,32767,0.0,0.0,63,0.00,,,0.01,Wunderground v.1.15,2013-02-15 21:00:00,
2013-02-15 15:05:00,61.9,49.2,30.05,North,32767,0.0,0.0,63,0.00,,,0.01,Wunderground v.1.15,2013-02-15 21:05:00,
2013-02-15 15:10:00,61.8,49.9,30.06,North,32767,0.0,0.0,65,0.00,,,0.01,Wunderground v.1.15,2013-02-15 21:10:00,
2013-02-15 15:15:00,62.0,49.7,30.06,North,32767,0.0,0.0,64,0.00,,,0.01,Wunderground v.1.15,2013-02-15 21:15:00,
2013-02-15 15:20:00,62.1,50.2,30.06,North,32767,0.0,0.0,65,0.00,,,0.01,Wunderground v.1.15,2013-02-15 21:20:00,
2013-02-15 15:30:00,61.7,49.8,30.06,North,32767,0.0,0.0,65,0.00,,,0.01,Wunderground v.1.15,2013-02-15 21:30:00,
2013-02-15 15:35:00,61.7,49.0,30.06,North,32767,0.0,0.0,63,0.00,,,0.01,Wunderground v.1.15,2013-02-15 21:35:00,
2013-02-15 15:40:00,61.4,49.1,30.06,North,32767,0.0,0.0,64,0.00,,,0.01,Wunderground v.1.15,2013-02-15 21:40:00,
2013-02-15 15:45:00,61.3,49.4,30.06,North,32767,0.0,0.0,65,0.00,,,0.01,Wunderground v.1.15,2013-02-15 21:45:00,
2013-02-15 15:50:00,61.0,48.7,30.06,North,32767,0.0,0.0,64,0.00,,,0.01,Wunderground v.1.15,2013-02-15 21:50:00,
2013-02-15 15:55:00,60.8,48.5,30.06,North,32767,0.0,0.0,64,0.00,,,0.01,Wunderground v.1.15,2013-02-15 21:55:00,
2013-02-15 16:00:00,60.7,48.4,30.06,North,32767,0.0,0.0,64,0.00,,,0.01,Wunderground v.1.15,2013-02-15 22:00:00,
2013-02-15 16:05:00,60.8,49.8,30.06,North,32767,0.0,0.0,67,0.00,,,0.01,Wunderground v.1.15,2013-02-15 22:05:00,
2013-02-15 16:15:00,60.9,48.6,30.06,North,32767,0.0,0.0,64,0.00,,,0.01,Wunderground v.1.15,2013-02-15 22:15:00,
2013-02-15 16:20:00,60.7,49.7,30.05,North,32767,0.0,0.0,67,0.00,,,0.01,Wunderground v.1.15,2013-02-15 22:20:00,
2013-02-15 16:25:00,60.4,50.2,30.06,North,32767,0.0,0.0,69,0.00,,,0.01,Wunderground v.1.15,2013-02-15 22:25:00,
2013-02-15 16:30:00,60.0,49.0,30.06,North,32767,0.0,0.0,67,0.00,,,0.01,Wunderground v.1.15,2013-02-15 22:30:00,
2013-02-15 16:40:00,59.3,49.1,30.06,North,32767,0.0,0.0,69,0.00,,,0.01,Wunderground v.1.15,2013-02-15 22:40:00,
2013-02-15 16:45:00,58.9,49.1,30.06,North,32767,0.0,0.0,70,0.00,,,0.01,Wunderground v.1.15,2013-02-15 22:45:00,
2013-02-15 16:50:00,58.7,48.9,30.06,North,32767,0.0,0.0,70,0.00,,,0.01,Wunderground v.1.15,2013-02-15 22:50:00,
2013-02-15 16:55:00,58.6,49.6,30.06,North,32767,0.0,0.0,72,0.00,,,0.01,Wunderground v.1.15,2013-02-15 22:55:00,
2013-02-15 17:00:00,58.3,48.9,30.06,North,32767,0.0,0.0,71,0.00,,,0.01,Wunderground v.1.15,2013-02-15 23:00:00,
2013-02-15 17:05:00,58.0,48.6,30.06,North,32767,0.0,0.0,71,0.00,,,0.01,Wunderground v.1.15,2013-02-15 23:05:00,
2013-02-15 17:10:00,57.8,48.5,30.06,North,32767,0.0,0.0,71,0.00,,,0.01,Wunderground v.1.15,2013-02-15 23:10:00,
2013-02-15 17:15:00,57.7,49.1,30.06,North,32767,0.0,0.0,73,0.00,,,0.01,Wunderground v.1.15,2013-02-15 23:15:00,
2013-02-15 17:20:00,57.4,48.8,30.06,North,32767,0.0,0.0,73,0.00,,,0.01,Wunderground v.1.15,2013-02-15 23:20:00,
2013-02-15 17:25:00,57.2,48.6,30.06,North,32767,0.0,0.0,73,0.00,,,0.01,Wunderground v.1.15,2013-02-15 23:25:00,
2013-02-15 17:30:00,57.0,48.4,30.06,North,32767,0.0,0.0,73,0.00,,,0.01,Wunderground v.1.15,2013-02-15 23:30:00,
2013-02-15 17:35:00,56.9,48.7,30.06,North,32767,0.0,0.0,74,0.00,,,0.01,Wunderground v.1.15,2013-02-15 23:35:00,
2013-02-15 17:40:00,56.7,48.9,30.06,North,32767,0.0,0.0,75,0.00,,,0.01,Wunderground v.1.15,2013-02-15 23:40:00,
2013-02-15 17:45:00,56.5,48.7,30.06,North,32767,0.0,0.0,75,0.00,,,0.01,Wunderground v.1.15,2013-02-15 23:45:00,
2013-02-15 17:50:00,56.3,48.8,30.06,North,32767,0.0,0.0,76,0.00,,,0.01,Wunderground v.1.15,2013-02-15 23:50:00,
2013-02-15 17:55:00,56.2,48.7,30.06,North,32767,0.0,0.0,76,0.00,,,0.01,Wunderground v.1.15,2013-02-15 23:55:00,
2013-02-15 18:00:00,56.0,48.5,30.06,North,32767,0.0,0.0,76,0.00,,,0.01,Wunderground v.1.15,2013-02-16 00:00:00,
2013-02-15 18:05:00,55.9,49.1,30.06,North,32767,0.0,0.0,78,0.00,,,0.01,Wunderground v.1.15,2013-02-16 00:05:00,
2013-02-15 18:10:00,55.7,49.3,30.06,North,32767,0.0,0.0,79,0.00,,,0.01,Wunderground v.1.15,2013-02-16 00:10:00,
2013-02-15 18:15:00,55.4,49.0,30.06,North,32767,0.0,0.0,79,0.00,,,0.01,Wunderground v.1.15,2013-02-16 00:15:00,
2013-02-15 18:20:00,55.2,49.1,30.06,North,32767,0.0,0.0,80,0.00,,,0.01,Wunderground v.1.15,2013-02-16 00:20:00,
2013-02-15 18:25:00,55.1,49.0,30.06,North,32767,0.0,0.0,80,0.00,,,0.01,Wunderground v.1.15,2013-02-16 00:25:00,
2013-02-15 18:30:00,55.0,48.9,30.06,North,32767,0.0,0.0,80,0.00,,,0.01,Wunderground v.1.15,2013-02-16 00:30:00,
2013-02-15 18:35:00,54.8,49.1,30.06,North,32767,0.0,0.0,81,0.00,,,0.01,Wunderground v.1.15,2013-02-16 00:35:00,
2013-02-15 18:40:00,54.5,49.1,30.07,North,32767,0.0,0.0,82,0.00,,,0.01,Wunderground v.1.15,2013-02-16 00:40:00,
2013-02-15 18:45:00,54.2,49.1,30.07,North,32767,0.0,0.0,83,0.00,,,0.01,Wunderground v.1.15,2013-02-16 00:45:00,
2013-02-15 18:50:00,54.0,49.3,30.07,North,32767,0.0,0.0,84,0.00,,,0.01,Wunderground v.1.15,2013-02-16 00:50:00,
2013-02-15 18:55:00,53.7,49.3,30.07,North,32767,0.0,0.0,85,0.00,,,0.01,Wunderground v.1.15,2013-02-16 00:55:00,
2013-02-15 19:00:00,53.5,49.4,30.07,North,32767,0.0,0.0,86,0.00,,,0.01,Wunderground v.1.15,2013-02-16 01:00:00,
2013-02-15 19:05:00,53.3,49.2,30.07,North,32767,0.0,0.0,86,0.00,,,0.01,Wunderground v.1.15,2013-02-16 01:05:00,
2013-02-15 19:10:00,53.3,49.2,30.07,North,32767,0.0,0.0,86,0.00,,,0.01,Wunderground v.1.15,2013-02-16 01:10:00,
2013-02-15 19:15:00,53.4,49.6,30.07,North,32767,0.0,0.0,87,0.00,,,0.01,Wunderground v.1.15,2013-02-16 01:15:00,
2013-02-15 19:20:00,53.6,49.8,30.07,North,32767,0.0,0.0,87,0.00,,,0.01,Wunderground v.1.15,2013-02-16 01:20:00,
2013-02-15 19:25:00,53.6,49.8,30.07,North,32767,0.0,0.0,87,0.00,,,0.01,Wunderground v.1.15,2013-02-16 01:25:00,
2013-02-15 19:30:00,53.5,49.7,30.07,North,32767,0.0,0.0,87,0.00,,,0.01,Wunderground v.1.15,2013-02-16 01:30:00,
2013-02-15 19:35:00,53.6,50.1,30.07,North,32767,0.0,0.0,88,0.00,,,0.01,Wunderground v.1.15,2013-02-16 01:35:00,
2013-02-15 19:40:00,53.7,50.2,30.07,North,32767,0.0,0.0,88,0.00,,,0.01,Wunderground v.1.15,2013-02-16 01:40:00,
2013-02-15 19:45:00,53.9,50.4,30.07,North,32767,0.0,0.0,88,0.00,,,0.01,Wunderground v.1.15,2013-02-16 01:45:00,
2013-02-15 19:50:00,53.8,50.6,30.08,North,32767,0.0,0.0,89,0.00,,,0.01,Wunderground v.1.15,2013-02-16 01:50:00,
2013-02-15 19:55:00,53.7,50.5,30.08,North,32767,0.0,0.0,89,0.00,,,0.01,Wunderground v.1.15,2013-02-16 01:55:00,
2013-02-15 20:00:00,53.7,50.2,30.08,North,32767,0.0,0.0,88,0.00,,,0.01,Wunderground v.1.15,2013-02-16 02:00:00,
2013-02-15 20:05:00,53.6,50.4,30.08,North,32767,0.0,0.0,89,0.00,,,0.01,Wunderground v.1.15,2013-02-16 02:05:00,
2013-02-15 20:10:00,53.5,50.3,30.08,North,32767,0.0,0.0,89,0.00,,,0.01,Wunderground v.1.15,2013-02-16 02:10:00,
2013-02-15 20:15:00,53.3,50.1,30.08,North,32767,0.0,0.0,89,0.00,,,0.01,Wunderground v.1.15,2013-02-16 02:15:00,
2013-02-15 20:20:00,53.1,49.9,30.08,North,32767,0.0,0.0,89,0.00,,,0.01,Wunderground v.1.15,2013-02-16 02:20:00,
2013-02-15 20:25:00,52.9,50.0,30.08,North,32767,0.0,0.0,90,0.00,,,0.01,Wunderground v.1.15,2013-02-16 02:25:00,
2013-02-15 20:30:00,52.8,50.2,30.08,North,32767,0.0,0.0,91,0.00,,,0.01,Wunderground v.1.15,2013-02-16 02:30:00,
2013-02-15 20:35:00,52.6,50.0,30.08,North,32767,0.0,0.0,91,0.00,,,0.01,Wunderground v.1.15,2013-02-16 02:35:00,
2013-02-15 20:40:00,52.5,49.9,30.08,North,32767,0.0,0.0,91,0.00,,,0.01,Wunderground v.1.15,2013-02-16 02:40:00,
2013-02-15 20:50:00,52.3,49.8,30.08,North,32767,0.0,0.0,91,0.00,,,0.01,Wunderground v.1.15,2013-02-16 02:50:00,
2013-02-15 20:55:00,52.3,49.8,30.08,North,32767,0.0,0.0,91,0.00,,,0.01,Wunderground v.1.15,2013-02-16 02:55:00,
2013-02-15 21:00:00,52.2,49.7,30.08,North,32767,0.0,0.0,91,0.00,,,0.01,Wunderground v.1.15,2013-02-16 03:00:00,
2013-02-15 21:05:00,52.1,49.6,30.08,North,32767,0.0,0.0,91,0.00,,,0.01,Wunderground v.1.15,2013-02-16 03:05:00,
2013-02-15 21:10:00,52.1,49.8,30.08,North,32767,0.0,0.0,92,0.00,,,0.01,Wunderground v.1.15,2013-02-16 03:10:00,
2013-02-15 21:15:00,52.2,49.9,30.08,North,32767,0.0,0.0,92,0.00,,,0.01,Wunderground v.1.15,2013-02-16 03:15:00,
2013-02-15 21:20:00,52.4,50.1,30.09,North,32767,0.0,0.0,92,0.00,,,0.01,Wunderground v.1.15,2013-02-16 03:20:00,
2013-02-15 21:25:00,52.6,50.3,30.09,North,32767,0.0,0.0,92,0.00,,,0.01,Wunderground v.1.15,2013-02-16 03:25:00,
2013-02-15 21:30:00,52.7,50.4,30.09,North,32767,0.0,0.0,92,0.00,,,0.01,Wunderground v.1.15,2013-02-16 03:30:00,
2013-02-15 21:35:00,52.7,50.4,30.09,North,32767,0.0,0.0,92,0.00,,,0.01,Wunderground v.1.15,2013-02-16 03:35:00,
2013-02-15 21:40:00,52.6,50.3,30.09,North,32767,0.0,0.0,92,0.00,,,0.01,Wunderground v.1.15,2013-02-16 03:40:00,
2013-02-15 21:45:00,52.6,50.3,30.10,North,32767,0.0,0.0,92,0.00,,,0.01,Wunderground v.1.15,2013-02-16 03:45:00,
2013-02-15 21:50:00,52.5,50.2,30.09,North,32767,0.0,0.0,92,0.00,,,0.01,Wunderground v.1.15,2013-02-16 03:50:00,
2013-02-15 21:55:00,52.4,50.1,30.09,North,32767,0.0,0.0,92,0.00,,,0.01,Wunderground v.1.15,2013-02-16 03:55:00,
2013-02-15 22:00:00,52.3,50.0,30.09,North,32767,0.0,0.0,92,0.00,,,0.01,Wunderground v.1.15,2013-02-16 04:00:00,
2013-02-15 22:05:00,52.1,50.1,30.09,North,32767,0.0,0.0,93,0.00,,,0.01,Wunderground v.1.15,2013-02-16 04:05:00,
2013-02-15 22:10:00,52.0,50.0,30.09,North,32767,0.0,0.0,93,0.00,,,0.01,Wunderground v.1.15,2013-02-16 04:10:00,
2013-02-15 22:15:00,51.9,49.9,30.09,North,32767,0.0,0.0,93,0.00,,,0.01,Wunderground v.1.15,2013-02-16 04:15:00,
2013-02-15 22:20:00,51.7,49.7,30.10,North,32767,0.0,0.0,93,0.00,,,0.01,Wunderground v.1.15,2013-02-16 04:20:00,
2013-02-15 22:25:00,51.7,50.0,30.10,North,32767,0.0,0.0,94,0.00,,,0.01,Wunderground v.1.15,2013-02-16 04:25:00,
2013-02-15 22:30:00,51.9,49.6,30.10,North,32767,0.0,0.0,92,0.00,,,0.01,Wunderground v.1.15,2013-02-16 04:30:00,
2013-02-15 22:40:00,52.5,49.0,30.10,North,32767,0.0,0.0,88,0.00,,,0.01,Wunderground v.1.15,2013-02-16 04:40:00,
2013-02-15 22:45:00,52.6,48.5,30.10,North,32767,0.0,0.0,86,0.00,,,0.01,Wunderground v.1.15,2013-02-16 04:45:00,
2013-02-15 22:50:00,52.8,48.4,30.10,North,32767,0.0,0.0,85,0.00,,,0.01,Wunderground v.1.15,2013-02-16 04:50:00,
2013-02-15 22:55:00,52.8,48.1,30.10,North,32767,0.0,0.0,84,0.00,,,0.01,Wunderground v.1.15,2013-02-16 04:55:00,
2013-02-15 23:00:00,52.7,47.7,30.10,North,32767,0.0,0.0,83,0.00,,,0.01,Wunderground v.1.15,2013-02-16 05:00:00,
2013-02-15 23:05:00,52.6,47.6,30.10,North,32767,0.0,0.0,83,0.00,,,0.01,Wunderground v.1.15,2013-02-16 05:05:00,
2013-02-15 23:10:00,52.5,47.2,30.10,North,32767,0.0,0.0,82,0.00,,,0.01,Wunderground v.1.15,2013-02-16 05:10:00,
2013-02-15 23:15:00,52.4,47.1,30.09,North,32767,0.0,0.0,82,0.00,,,0.01,Wunderground v.1.15,2013-02-16 05:15:00,
2013-02-15 23:20:00,52.2,46.9,30.10,North,32767,0.0,0.0,82,0.00,,,0.01,Wunderground v.1.15,2013-02-16 05:20:00,
2013-02-15 23:25:00,52.1,46.8,30.10,North,32767,0.0,0.0,82,0.00,,,0.01,Wunderground v.1.15,2013-02-16 05:25:00,
2013-02-15 23:30:00,52.0,46.7,30.10,North,32767,0.0,0.0,82,0.00,,,0.01,Wunderground v.1.15,2013-02-16 05:30:00,
2013-02-15 23:35:00,51.8,46.5,30.10,North,32767,0.0,0.0,82,0.00,,,0.01,Wunderground v.1.15,2013-02-16 05:35:00,
2013-02-15 23:40:00,51.8,46.5,30.10,North,32767,0.0,0.0,82,0.00,,,0.01,Wunderground v.1.15,2013-02-16 05:40:00,
2013-02-15 23:50:00,51.6,46.0,30.10,North,32767,0.0,0.0,81,0.00,,,0.01,Wunderground v.1.15,2013-02-16 05:50:00,
2013-02-15 23:55:00,51.6,46.0,30.10,North,32767,0.0,0.0,81,0.00,,,0.01,Wunderground v.1.15,2013-02-16 05:55:00,